sat.trackr.live / text

‹ back to catalog

STARLINK-32005

NORAD 60034 · 2024-111U

PAYLOAD ACTIVE UNKNOWN

§ Identity

Operator
Country
US
Launch date
2024-06-08
Launch site
AFETR
Launch vehicle
Mass (kg)
RCS (m²)

Purposes: comms

External: N2YO · Heavens-Above · Gunter

§ Orbital elements

Epoch: 2026-09-21T14:10:25.277376Z

Period
93.85 min
Inclination
53.1585°
Eccentricity
0.0001291
Mean motion
15.34386169 rev/d
Perigee alt
461.9 km
Apogee alt
463.6 km
Semi-major
6,840.9 km
B*
-2.0070e-5
RAAN
244.4899°
Arg perigee
88.4170°
Mean anomaly
271.6980°
Rev number
12,894

§ Raw data

STARLINK-320051 60034U 24111U   26264.59057034 -.00001054  00000+0 -20070-4 0  99992 60034  53.1585 244.4899 0001291  88.4170 271.6980 15.34386169128946

JSON: /api/v1/satellites/60034 · /tle

For live sub-satellite position, see the globe view (requires WebGL).

§ Visibility from observer

Set your observer location to see the next 7 days of passes ≥ 10°. The values pass through the URL so the page stays shareable.

No JS? Fill the form by hand. The geolocation button needs JavaScript.